Canadian, TX

11:50 AM CDT on March 25, 2017 (GMT -0500)
Hemphill County

Weather History for KHHF - January, 2012

Change the Weather History Date:

Tuesday, January 24, 2012

  Actual Average (KPPA) Record (KPPA)
Temperature  
Mean Temperature 50 °F -  
Max Temperature 60 °F 51 °F 78 °F (1972)
Min Temperature 41 °F 23 °F 2 °F (2014)
Degree Days  
Heating Degree Days 14    
Moisture  
Dew Point 36 °F    
Average Humidity 62    
Maximum Humidity 87    
Minimum Humidity 39    
Precipitation  
Precipitation 0.16 in - - ()
Sea Level Pressure  
Sea Level Pressure 29.93 in    
Wind  
Wind Speed 0 mph (North)    
Max Wind Speed 0 mph    
Max Gust Speed -    
Visibility 10 miles    
Events Rain , Thunderstorm    
Averages and records for this station are not official NWS values.
T = Trace of Precipitation, MM = Missing Value Source: NWS Daily Summary

Daily Weather History Graph

Daily Weather History Graph

Search for Another Location

Airport or City:

Trip Planner

Search our weather history database for the weather conditions in past years. The results will help you decide how hot, cold, wet, or windy it might be!

Date:

Astronomy

Jan. 24, 2012 Rise Set
Actual Time 7:47 AM CST 5:59 PM CST
Civil Twilight 7:20 AM CST 6:27 PM CST
Nautical Twilight 6:49 AM CST 6:58 PM CST
Astronomical Twilight 6:18 AM CST 7:28 PM CST
Moon 8:22 AM CST (1/24) 7:48 PM CST (1/24)
Length of Visible Light 11h 07m
Length of Day
10h 12m
New Moon, 2% of the Moon is Illuminated
Jan 24
New Moon
Jan 30
First Quarter
Feb 7
Full
Feb 14
Last Quarter
Feb 21
New

Hourly Weather History & Observations

Time (CST) Temp. Dew Point Humidity Pressure Visibility Wind Dir Wind Speed Gust Speed Precip Events Conditions
12:15 AM 42.8 °F 28.4 °F 57% 29.92 in 10.0 mi Calm Calm - N/A   Clear
12:35 AM 42.8 °F 28.4 °F 57% 29.92 in 10.0 mi Calm Calm - N/A   Clear
12:55 AM 42.8 °F 28.4 °F 57% 29.91 in 10.0 mi Calm Calm - N/A   Clear
1:15 AM 42.8 °F 28.4 °F 57% 29.90 in 10.0 mi Calm Calm - N/A   Clear
1:35 AM 42.8 °F 28.4 °F 57% 29.91 in 10.0 mi Calm Calm - N/A   Clear
1:55 AM 42.8 °F 30.2 °F 61% 29.90 in 10.0 mi Calm Calm - N/A   Clear
2:15 AM 42.8 °F 30.2 °F 61% 29.91 in 10.0 mi Calm Calm - N/A   Clear
3:15 AM 42.8 °F 30.2 °F 61% 29.91 in 10.0 mi Calm Calm - N/A   Clear
3:35 AM 42.8 °F 30.2 °F 61% 29.91 in 10.0 mi Calm Calm - N/A   Clear
3:55 AM 41.0 °F 32.0 °F 70% 29.91 in 10.0 mi Calm Calm - N/A   Clear
4:15 AM 41.0 °F 32.0 °F 70% 29.91 in 10.0 mi Calm Calm - N/A   Clear
4:35 AM 41.0 °F 32.0 °F 70% 29.91 in 10.0 mi Calm Calm - N/A   Clear
4:55 AM 41.0 °F 32.0 °F 70% 29.90 in 10.0 mi Calm Calm - N/A   Clear
5:15 AM 42.8 °F 32.0 °F 66% 29.89 in 10.0 mi Calm Calm - N/A   Clear
5:35 AM 42.8 °F 32.0 °F 66% 29.88 in 10.0 mi Calm Calm - N/A   Clear
5:55 AM 41.0 °F 32.0 °F 70% 29.88 in 10.0 mi Calm Calm - N/A   Clear
6:15 AM 41.0 °F 32.0 °F 70% 29.90 in 10.0 mi Calm Calm - N/A   Clear
6:35 AM 41.0 °F 32.0 °F 70% 29.92 in 10.0 mi Calm Calm - N/A   Clear
6:55 AM 41.0 °F 32.0 °F 70% 29.92 in 10.0 mi Calm Calm - N/A   Clear
7:15 AM 41.0 °F 32.0 °F 70% 29.91 in 10.0 mi Calm Calm - N/A   Clear
7:35 AM 41.0 °F 32.0 °F 70% 29.91 in 10.0 mi Calm Calm - N/A   Clear
7:55 AM 41.0 °F 32.0 °F 70% 29.91 in 10.0 mi Calm Calm - N/A   Clear
8:15 AM 41.0 °F 32.0 °F 70% 29.93 in 10.0 mi Calm Calm - N/A   Clear
8:35 AM 41.0 °F 32.0 °F 70% 29.92 in 10.0 mi Calm Calm - N/A   Clear
8:55 AM 41.0 °F 32.0 °F 70% 29.93 in 10.0 mi Calm Calm - N/A   Clear
9:55 AM 44.6 °F 32.0 °F 61% 29.93 in 10.0 mi Calm Calm - N/A   Clear
10:15 AM 44.6 °F 32.0 °F 61% 29.94 in 10.0 mi Calm Calm - N/A   Clear
10:35 AM 46.4 °F 33.8 °F 62% 29.95 in 10.0 mi Calm Calm - N/A   Clear
10:55 AM 50.0 °F 33.8 °F 54% 29.96 in 10.0 mi North - - N/A   Clear
11:15 AM 51.8 °F 33.8 °F 50% 29.96 in 10.0 mi North - - N/A   Clear
11:35 AM 53.6 °F 33.8 °F 47% 29.96 in 10.0 mi North - - N/A   Clear
11:55 AM 53.6 °F 33.8 °F 47% 29.94 in 10.0 mi North - - N/A   Clear
12:15 PM 55.4 °F 33.8 °F 44% 29.93 in 10.0 mi North - - N/A   Clear
12:35 PM 59.0 °F 33.8 °F 39% 29.91 in 10.0 mi North - - N/A   Clear
12:55 PM 59.0 °F 35.6 °F 42% 29.91 in 10.0 mi North - - N/A   Clear
1:15 PM 59.0 °F 39.2 °F 48% 29.90 in 10.0 mi North - - N/A   Clear
1:35 PM 60.8 °F 39.2 °F 45% 29.90 in 10.0 mi North - - N/A   Clear
1:55 PM 59.0 °F 41.0 °F 51% 29.90 in 10.0 mi North - - N/A   Clear
2:15 PM 60.8 °F 41.0 °F 48% 29.89 in 10.0 mi North - - N/A   Clear
2:35 PM 60.8 °F 37.4 °F 42% 29.89 in 10.0 mi North - - N/A   Clear
2:55 PM 59.0 °F 39.2 °F 48% 29.90 in 10.0 mi North - - N/A   Scattered Clouds
3:15 PM 59.0 °F 42.8 °F 55% 29.90 in 10.0 mi North - - N/A   Scattered Clouds
3:35 PM 57.2 °F 42.8 °F 59% 29.90 in 10.0 mi North - - N/A   Mostly Cloudy
3:55 PM 57.2 °F 41.0 °F 55% 29.91 in 10.0 mi North - - N/A   Overcast
4:15 PM 55.4 °F 41.0 °F 58% 29.91 in 10.0 mi North - - N/A   Overcast
4:35 PM 55.4 °F 42.8 °F 63% 29.92 in 10.0 mi North - - N/A   Overcast
4:55 PM 55.4 °F 42.8 °F 63% 29.92 in 10.0 mi North - - N/A   Overcast
5:15 PM 55.4 °F 42.8 °F 63% 29.93 in 10.0 mi North - - N/A   Overcast
5:35 PM 55.4 °F 42.8 °F 63% 29.94 in 10.0 mi North - - N/A   Overcast
5:55 PM 53.6 °F 42.8 °F 67% 29.94 in 10.0 mi North - - N/A Thunderstorm Mostly Cloudy
6:15 PM 53.6 °F 42.8 °F 67% 29.95 in 10.0 mi North - - N/A Thunderstorm Scattered Clouds
6:35 PM 51.8 °F 42.8 °F 71% 29.95 in 10.0 mi North - - N/A Thunderstorm Mostly Cloudy
6:55 PM 53.6 °F 42.8 °F 67% 29.95 in 10.0 mi North - - N/A Thunderstorm Thunderstorm
7:15 PM 53.6 °F 41.0 °F 62% 29.96 in 10.0 mi North - - N/A Thunderstorm Thunderstorm
7:35 PM 50.0 °F 44.6 °F 82% 29.98 in 7.0 mi North - - 0.02 in Rain Rain
7:55 PM 50.0 °F 44.6 °F 82% 30.00 in 7.0 mi North - - 0.04 in Rain , Thunderstorm Light Thunderstorms and Rain
8:35 PM 46.4 °F 39.2 °F 76% 30.04 in 10.0 mi North - - 0.04 in Rain Rain
8:55 PM 44.6 °F 41.0 °F 87% 30.07 in 10.0 mi North - - 0.07 in Rain Rain
9:15 PM 44.6 °F 41.0 °F 87% 30.10 in 5.0 mi North - - 0.05 in Rain Heavy Rain
9:35 PM 42.8 °F 41.0 °F 93% 30.10 in 5.0 mi North - - 0.12 in Rain Heavy Rain
9:55 PM 42.8 °F 39.2 °F 87% 30.11 in 10.0 mi North - - 0.14 in Rain Light Rain
10:15 PM 42.8 °F 39.2 °F 87% 30.11 in 10.0 mi North - - 0.01 in Rain Light Rain
10:35 PM 42.8 °F 41.0 °F 93% 30.12 in 10.0 mi North - - 0.01 in Rain Rain
10:55 PM 42.8 °F 37.4 °F 81% 30.11 in 10.0 mi North - - 0.01 in Rain Light Rain
11:15 PM 42.8 °F 37.4 °F 81% 30.11 in 10.0 mi North - - N/A   Light Drizzle
11:35 PM 41.0 °F 37.4 °F 87% 30.10 in 10.0 mi North - - N/A Rain Light Rain
11:55 PM 41.0 °F 37.4 °F 87% 30.10 in 10.0 mi North - - N/A Rain Rain